When you browse on this site, cookies collect data to enhance your experience and personalize the content and advertising you see.
Visit our Privacy Policy to learn more. By continuing to use the site, you agree to this use of cookies and data.
  • In Hungary
  • List of Countries
  • For 7 days
  • Water Temperature
  • Satellite Maps
  • Weather Map
  • News
  • Weather Widgets
  • user-avatar
    Login

    Hourly Weather Nyuhoveckie Vyselki

    Today, 24 January, Thursday

    Time Temperature Precipitation Wind Pressure Humidity
    00:00 -22°C° 0 mm 3 mps 751 mmHg 98%
    01:00 -21°C° 0.1 mm 3 mps 750 mmHg 97%
    02:00 -19°C° 0.1 mm 3 mps 750 mmHg 96%
    03:00 -18°C° 0 mm 2 mps 749 mmHg 97%
    04:00 -19°C° 0.3 mm 3 mps 749 mmHg 97%
    05:00 -20°C° 0.3 mm 4 mps 748 mmHg 97%
    06:00 -19°C° 0.3 mm 4 mps 747 mmHg 97%
    07:00 -19°C° 0.4 mm 4 mps 747 mmHg 96%
    08:00 -19°C° 0.4 mm 4 mps 746 mmHg 96%
    09:00 -18°C° 0 mm 4 mps 746 mmHg 96%
    10:00 -18°C° 0.2 mm 4 mps 745 mmHg 95%
    11:00 -17°C° 0.2 mm 4 mps 745 mmHg 94%
    12:00 -17°C° 0.2 mm 4 mps 745 mmHg 94%
    13:00 -17°C° 0.1 mm 4 mps 745 mmHg 94%
    14:00 -15°C° 0.1 mm 3 mps 744 mmHg 94%
    15:00 -15°C° 0.1 mm 3 mps 744 mmHg 95%
    16:00 -17°C° 0 mm 3 mps 745 mmHg 96%
    17:00 -18°C° 0 mm 3 mps 745 mmHg 96%
    18:00 -19°C° 0 mm 3 mps 745 mmHg 97%
    19:00 -21°C° 0 mm 3 mps 745 mmHg 97%
    20:00 -22°C° 0 mm 3 mps 746 mmHg 98%
    21:00 -22°C° 0 mm 3 mps 746 mmHg 98%
    22:00 -22°C° 0 mm 3 mps 747 mmHg 98%
    23:00 -22°C° 0 mm 3 mps 747 mmHg 98%

    Tomorrow, 25 January, Friday

    Time Temperature Precipitation Wind Pressure Humidity
    00:00 -22°C° 0 mm 3 mps 748 mmHg 98%
    01:00 -22°C° 0 mm 3 mps 748 mmHg 98%
    02:00 -22°C° 0 mm 3 mps 749 mmHg 98%
    03:00 -21°C° 0 mm 3 mps 749 mmHg 98%
    04:00 -21°C° 0 mm 3 mps 750 mmHg 98%
    05:00 -22°C° 0 mm 3 mps 750 mmHg 98%
    06:00 -22°C° 0 mm 3 mps 751 mmHg 98%
    07:00 -22°C° 0 mm 3 mps 751 mmHg 99%
    08:00 -21°C° 0 mm 2 mps 752 mmHg 99%
    09:00 -23°C° 0 mm 2 mps 753 mmHg 99%
    10:00 -21°C° 0 mm 2 mps 753 mmHg 98%
    11:00 -20°C° 0 mm 2 mps 754 mmHg 96%
    12:00 -19°C° 0 mm 2 mps 754 mmHg 94%
    13:00 -19°C° 0 mm 2 mps 754 mmHg 94%
    14:00 -16°C° 0 mm 1 mps 755 mmHg 93%
    15:00 -16°C° 0 mm 1 mps 755 mmHg 92%
    16:00 -17°C° 0 mm 1 mps 755 mmHg 92%
    17:00 -18°C° 0 mm 1 mps 755 mmHg 92%
    18:00 -19°C° 0 mm 1 mps 755 mmHg 93%
    19:00 -21°C° 0 mm 2 mps 755 mmHg 93%
    20:00 -21°C° 0 mm 2 mps 756 mmHg 93%
    21:00 -21°C° 0 mm 2 mps 756 mmHg 93%
    22:00 -23°C° 0 mm 2 mps 756 mmHg 94%
    23:00 -23°C° 0 mm 2 mps 755 mmHg 94%

    Day after tomorrow, 26 January, Saturday

    Time Temperature Precipitation Wind Pressure Humidity
    00:00 -24°C° 0 mm 3 mps 755 mmHg 95%
    01:00 -24°C° 0 mm 3 mps 755 mmHg 95%
    02:00 -24°C° 0 mm 3 mps 755 mmHg 95%
    03:00 -24°C° 0 mm 3 mps 754 mmHg 95%
    04:00 -25°C° 0 mm 4 mps 754 mmHg 92%
    05:00 -24°C° 0 mm 4 mps 753 mmHg 90%
    06:00 -25°C° 0 mm 5 mps 752 mmHg 88%
    07:00 -24°C° 0 mm 5 mps 752 mmHg 87%
    08:00 -23°C° 0 mm 6 mps 751 mmHg 86%
    09:00 -22°C° 0 mm 6 mps 751 mmHg 85%
    10:00 -21°C° 0.3 mm 7 mps 750 mmHg 88%
    11:00 -20°C° 0.3 mm 7 mps 749 mmHg 91%
    12:00 -19°C° 0.3 mm 8 mps 748 mmHg 94%
    13:00 -18°C° 0.6 mm 8 mps 747 mmHg 94%
    14:00 -18°C° 0.6 mm 7 mps 747 mmHg 93%
    15:00 -17°C° 0.6 mm 7 mps 746 mmHg 93%
    16:00 -17°C° 0.6 mm 7 mps 745 mmHg 94%
    17:00 -15°C° 0.6 mm 7 mps 745 mmHg 94%
    18:00 -15°C° 0.6 mm 7 mps 744 mmHg 94%
    19:00 -14°C° 0.4 mm 7 mps 743 mmHg 94%
    20:00 -14°C° 0.4 mm 7 mps 743 mmHg 93%
    21:00 -13°C° 0.4 mm 7 mps 742 mmHg 93%
    22:00 -13°C° 0.3 mm 7 mps 742 mmHg 93%
    23:00 -12°C° 0.3 mm 7 mps 741 mmHg 93%

    27 January, Sunday

    Time Temperature Precipitation Wind Pressure Humidity
    00:00 -12°C° 0.3 mm 7 mps 741 mmHg 93%
    01:00 -11°C° 0.1 mm 7 mps 740 mmHg 92%
    02:00 -8°C° 0.1 mm 7 mps 740 mmHg 92%
    03:00 -7°C° 0.1 mm 8 mps 740 mmHg 92%
    04:00 -7°C° 0.1 mm 8 mps 739 mmHg 92%
    05:00 -7°C° 0.1 mm 8 mps 739 mmHg 91%
    06:00 -7°C° 0.1 mm 8 mps 738 mmHg 91%
    07:00 -7°C° 0.1 mm 8 mps 738 mmHg 91%
    08:00 -8°C° 0.1 mm 8 mps 738 mmHg 91%
    09:00 -9°C° 0.1 mm 9 mps 738 mmHg 91%
    10:00 -8°C° 0.4 mm 8 mps 737 mmHg 91%
    11:00 -8°C° 0.4 mm 8 mps 737 mmHg 91%
    12:00 -8°C° 0.4 mm 8 mps 736 mmHg 90%
    13:00 -8°C° 0.6 mm 8 mps 736 mmHg 91%
    14:00 -8°C° 0.6 mm 8 mps 736 mmHg 92%
    15:00 -8°C° 0.6 mm 8 mps 735 mmHg 93%
    16:00 -8°C° 0.7 mm 7 mps 735 mmHg 93%
    17:00 -8°C° 0.7 mm 7 mps 735 mmHg 93%
    18:00 -8°C° 0.7 mm 7 mps 734 mmHg 93%
    19:00 -7°C° 0.2 mm 7 mps 734 mmHg 93%
    20:00 -6°C° 0.2 mm 6 mps 734 mmHg 93%
    21:00 -5°C° 0.2 mm 6 mps 734 mmHg 93%
    22:00 -5°C° 0.5 mm 6 mps 734 mmHg 93%
    23:00 -5°C° 0.5 mm 6 mps 734 mmHg 94%

    28 January, Monday

    Time Temperature Precipitation Wind Pressure Humidity
    00:00 -5°C° 0.5 mm 5 mps 734 mmHg 94%
    01:00 -4°C° 0.3 mm 5 mps 735 mmHg 94%
    02:00 -2°C° 0.3 mm 4 mps 735 mmHg 95%
    03:00 -2°C° 0.3 mm 4 mps 736 mmHg 95%
    04:00 -3°C° 0.2 mm 4 mps 736 mmHg 95%
    05:00 -4°C° 0.2 mm 4 mps 737 mmHg 95%
    06:00 -5°C° 0.2 mm 4 mps 738 mmHg 95%
    07:00 -8°C° 0.1 mm 5 mps 738 mmHg 94%
    08:00 -11°C° 0.1 mm 5 mps 739 mmHg 93%
    09:00 -13°C° 0.1 mm 5 mps 740 mmHg 92%
    10:00 -13°C° 0 mm 5 mps 741 mmHg 92%
    11:00 -14°C° 0 mm 5 mps 741 mmHg 92%
    12:00 -15°C° 0 mm 5 mps 742 mmHg 92%
    13:00 -15°C° 0 mm 4 mps 742 mmHg 91%
    14:00 -15°C° 0 mm 4 mps 743 mmHg 91%
    15:00 -16°C° 0 mm 4 mps 743 mmHg 90%
    16:00 -16°C° 0 mm 3 mps 744 mmHg 90%
    17:00 -17°C° 0 mm 3 mps 744 mmHg 91%
    18:00 -19°C° 0 mm 3 mps 745 mmHg 91%
    19:00 -18°C° 0 mm 2 mps 745 mmHg 90%
    20:00 -19°C° 0 mm 2 mps 745 mmHg 90%
    21:00 -19°C° 0 mm 2 mps 746 mmHg 89%
    22:00 -18°C° 0 mm 1 mps 746 mmHg 89%
    23:00 -18°C° 0 mm 1 mps 746 mmHg 89%

    29 January, Tuesday

    Time Temperature Precipitation Wind Pressure Humidity
    00:00 -18°C° 0 mm 0 mps 746 mmHg 89%
    01:00 -18°C° 0 mm 0 mps 746 mmHg 88%
    02:00 -17°C° 0 mm 0 mps 746 mmHg 88%
    03:00 -17°C° 0 mm 1 mps 746 mmHg 87%
    04:00 -17°C° 0 mm 1 mps 746 mmHg 88%
    05:00 -18°C° 0 mm 2 mps 746 mmHg 88%
    06:00 -17°C° 0 mm 2 mps 746 mmHg 89%
    07:00 -17°C° 0 mm 3 mps 746 mmHg 89%
    08:00 -17°C° 0 mm 3 mps 746 mmHg 90%
    09:00 -17°C° 0 mm 4 mps 745 mmHg 90%
    10:00 -15°C° 0 mm 4 mps 745 mmHg 89%
    11:00 -13°C° 0 mm 5 mps 745 mmHg 88%
    12:00 -12°C° 0 mm 6 mps 745 mmHg 87%
    13:00 -11°C° 0.1 mm 6 mps 744 mmHg 87%
    14:00 -10°C° 0.1 mm 6 mps 744 mmHg 87%
    15:00 -9°C° 0.1 mm 6 mps 744 mmHg 87%
    16:00 -9°C° 0.3 mm 7 mps 743 mmHg 89%
    17:00 -9°C° 0.3 mm 7 mps 743 mmHg 91%
    18:00 -8°C° 0.3 mm 7 mps 743 mmHg 92%
    19:00 -7°C° 0.3 mm 7 mps 742 mmHg 93%
    20:00 -7°C° 0.3 mm 7 mps 742 mmHg 93%
    21:00 -6°C° 0.3 mm 7 mps 742 mmHg 93%
    22:00 -4°C° 0 mm 7 mps 742 mmHg 93%
    23:00 -3°C° 0 mm 6 mps 742 mmHg 94%
    Show more